AAL1469 MMUN-KMIA

Flight info

Callsign AAL1469
Flight time N/A
Altitude 37000
Route NUDAL1A NUDAL UV106 PODON UG765 MAXIM SNDBR3
Aircraft A21N/M-SDE2E3FGHIJ1RWXY/LB1

Departure

Time 2026-05-04 20:46
Airport Cancún International Airport (MMUN)

Arrival

Time N/A
Airport Miami International Airport (KMIA)
Time Latitude Longitude Altitude Speed Heading
2026-05-04 20:28 21.03932 -86.87676 48 ft 0 kts 34°
2026-05-04 20:37 21.03926 -86.87680 48 ft 4 kts 34°
2026-05-04 20:38 21.03904 -86.87696 48 ft 4 kts 34°
2026-05-04 20:38 21.03882 -86.87711 48 ft 4 kts 18°
2026-05-04 20:38 21.03861 -86.87709 44 ft 4 kts 317°
2026-05-04 20:38 21.03849 -86.87694 46 ft 1 kts 304°
2026-05-04 20:40 21.03850 -86.87695 46 ft 1 kts 304°
2026-05-04 20:41 21.03861 -86.87713 45 ft 5 kts 304°
2026-05-04 20:41 21.03887 -86.87755 47 ft 9 kts 304°
2026-05-04 20:41 21.03927 -86.87817 47 ft 11 kts 303°
2026-05-04 20:41 21.03958 -86.87868 47 ft 13 kts 303°
2026-05-04 20:42 21.04012 -86.87955 47 ft 15 kts 303°
2026-05-04 20:42 21.04073 -86.88053 47 ft 17 kts 304°
2026-05-04 20:42 21.04144 -86.88164 47 ft 19 kts 304°
2026-05-04 20:42 21.04221 -86.88287 47 ft 21 kts 303°
2026-05-04 20:43 21.04305 -86.88421 47 ft 22 kts 304°
2026-05-04 20:43 21.04395 -86.88562 48 ft 20 kts 304°
2026-05-04 20:43 21.04477 -86.88693 47 ft 22 kts 303°
2026-05-04 20:43 21.04564 -86.88834 47 ft 24 kts 303°
2026-05-04 20:44 21.04634 -86.88957 47 ft 14 kts 282°
2026-05-04 20:44 21.04605 -86.89027 43 ft 6 kts 220°
2026-05-04 20:44 21.04566 -86.89058 42 ft 8 kts 213°
2026-05-04 20:44 21.04510 -86.89057 41 ft 10 kts 143°
2026-05-04 20:45 21.04489 -86.89029 42 ft 0 kts 124°
2026-05-04 20:45 21.04436 -86.88946 42 ft 47 kts 123°
2026-05-04 20:45 21.04115 -86.88432 45 ft 117 kts 123°
2026-05-04 20:45 21.03555 -86.87531 56 ft 168 kts 123°
2026-05-04 20:46 21.02902 -86.86488 668 ft 168 kts 125°
2026-05-04 20:46 21.02313 -86.85391 1307 ft 177 kts 116°
2026-05-04 20:46 21.01710 -86.84161 1826 ft 197 kts 118°
2026-05-04 20:46 21.01006 -86.82785 2267 ft 230 kts 119°
2026-05-04 20:47 21.00186 -86.81198 2834 ft 255 kts 119°
2026-05-04 20:47 20.99304 -86.79499 3676 ft 266 kts 119°
2026-05-04 20:47 20.98395 -86.77750 4388 ft 272 kts 119°
2026-05-04 20:47 20.97460 -86.75948 4849 ft 275 kts 119°
2026-05-04 20:48 20.96537 -86.74154 4995 ft 276 kts 117°
2026-05-04 20:48 20.95976 -86.72201 5010 ft 276 kts 92°
2026-05-04 20:48 20.96187 -86.70189 5662 ft 279 kts 78°
2026-05-04 20:48 20.96593 -86.68144 6583 ft 283 kts 78°
2026-05-04 20:49 20.97006 -86.66073 7457 ft 287 kts 78°
2026-05-04 20:49 20.97418 -86.63969 8341 ft 291 kts 78°
2026-05-04 20:49 20.97831 -86.61827 9237 ft 296 kts 78°
2026-05-04 20:49 20.98275 -86.59661 10094 ft 302 kts 74°
2026-05-04 20:50 20.98977 -86.57466 10539 ft 322 kts 69°
2026-05-04 20:50 20.99792 -86.55150 10892 ft 344 kts 69°
2026-05-04 20:50 21.00654 -86.52693 11412 ft 358 kts 69°
2026-05-04 20:50 21.01537 -86.50174 12149 ft 364 kts 69°
2026-05-04 20:51 21.02427 -86.47619 12921 ft 369 kts 69°
2026-05-04 20:51 21.03330 -86.45025 13683 ft 375 kts 69°
2026-05-04 20:51 21.04246 -86.42389 14349 ft 380 kts 69°
2026-05-04 20:51 21.05177 -86.39723 14999 ft 385 kts 68°
2026-05-04 20:52 21.06124 -86.37023 15636 ft 390 kts 68°
2026-05-04 20:52 21.07078 -86.34288 16262 ft 395 kts 68°
2026-05-04 20:52 21.08045 -86.31520 16877 ft 399 kts 68°
2026-05-04 20:52 21.09010 -86.28750 17481 ft 404 kts 68°
2026-05-04 20:53 21.09992 -86.25912 18079 ft 409 kts 68°
2026-05-04 20:53 21.10982 -86.23040 18603 ft 413 kts 68°
2026-05-04 20:53 21.11985 -86.20138 19117 ft 417 kts 68°
2026-05-04 20:53 21.12998 -86.17207 19638 ft 421 kts 68°
2026-05-04 20:54 21.14020 -86.14247 20157 ft 425 kts 68°
2026-05-04 20:54 21.15049 -86.11262 20679 ft 429 kts 67°
2026-05-04 20:54 21.16088 -86.08249 21211 ft 433 kts 67°
2026-05-04 20:54 21.17133 -86.05211 21757 ft 437 kts 67°
2026-05-04 20:55 21.18188 -86.02143 22290 ft 440 kts 67°
2026-05-04 20:55 21.19226 -85.99038 22825 ft 445 kts 70°
2026-05-04 20:55 21.19965 -85.95795 23347 ft 451 kts 76°
2026-05-04 20:55 21.20594 -85.92487 23800 ft 455 kts 76°
2026-05-04 20:56 21.21207 -85.89198 24238 ft 457 kts 76°
2026-05-04 20:56 21.21834 -85.85841 24694 ft 460 kts 76°
2026-05-04 20:56 21.22465 -85.82468 25146 ft 462 kts 75°
2026-05-04 20:56 21.23099 -85.79087 25599 ft 464 kts 75°
2026-05-04 20:57 21.23748 -85.75688 26053 ft 466 kts 75°
2026-05-04 20:57 21.24398 -85.72277 26490 ft 468 kts 75°
2026-05-04 20:57 21.25042 -85.68851 26917 ft 470 kts 75°
2026-05-04 20:57 21.25812 -85.65450 27351 ft 468 kts 67°
2026-05-04 20:58 21.27110 -85.62282 27757 ft 462 kts 55°
2026-05-04 20:58 21.28971 -85.59510 28158 ft 455 kts 42°
2026-05-04 20:58 21.31239 -85.57164 28572 ft 452 kts 36°
2026-05-04 20:58 21.33588 -85.54929 28988 ft 453 kts 36°
2026-05-04 20:59 21.35952 -85.52674 29409 ft 455 kts 36°
2026-05-04 20:59 21.38307 -85.50403 29832 ft 457 kts 36°
2026-05-04 20:59 21.40633 -85.48140 30201 ft 458 kts 36°
2026-05-04 20:59 21.42999 -85.45832 30513 ft 461 kts 36°
2026-05-04 21:00 21.45373 -85.43512 30892 ft 461 kts 37°
2026-05-04 21:00 21.47748 -85.41190 31242 ft 462 kts 36°
2026-05-04 21:00 21.50125 -85.38838 31497 ft 466 kts 37°
2026-05-04 21:00 21.52507 -85.36482 31871 ft 466 kts 37°
2026-05-04 21:01 21.54894 -85.34124 32284 ft 465 kts 37°
2026-05-04 21:01 21.57279 -85.31775 32697 ft 465 kts 37°
2026-05-04 21:01 21.59662 -85.29433 33084 ft 464 kts 37°
2026-05-04 21:01 21.62044 -85.27095 33478 ft 464 kts 37°
2026-05-04 21:02 21.64430 -85.24773 33841 ft 463 kts 37°
2026-05-04 21:02 21.66798 -85.22479 34157 ft 463 kts 37°
2026-05-04 21:02 21.69194 -85.20159 34385 ft 465 kts 37°
2026-05-04 21:02 21.71588 -85.17818 34602 ft 467 kts 37°
2026-05-04 21:03 21.73988 -85.15459 34863 ft 468 kts 36°
2026-05-04 21:03 21.76390 -85.13097 35093 ft 469 kts 36°
2026-05-04 21:03 21.78801 -85.10729 35295 ft 470 kts 36°
2026-05-04 21:03 21.81225 -85.08344 35501 ft 472 kts 36°
2026-05-04 21:04 21.83650 -85.05955 35690 ft 474 kts 36°
2026-05-04 21:04 21.86084 -85.03551 35872 ft 476 kts 36°
2026-05-04 21:04 21.88528 -85.01143 36015 ft 478 kts 36°
2026-05-04 21:04 21.90992 -84.98718 36177 ft 480 kts 36°
2026-05-04 21:05 21.93463 -84.96286 36360 ft 482 kts 36°
2026-05-04 21:05 21.95942 -84.93848 36547 ft 483 kts 36°
2026-05-04 21:05 21.98419 -84.91399 36728 ft 484 kts 36°
2026-05-04 21:05 22.00907 -84.88941 36907 ft 485 kts 36°
2026-05-04 21:06 22.03369 -84.86504 37013 ft 487 kts 36°
2026-05-04 21:06 22.05865 -84.84035 37033 ft 487 kts 36°
2026-05-04 21:06 22.10858 -84.79113 36989 ft 486 kts 36°
2026-05-04 21:07 22.15832 -84.74194 36977 ft 485 kts 36°
2026-05-04 21:07 22.20806 -84.69259 36974 ft 485 kts 36°
2026-05-04 21:08 22.25786 -84.64312 36976 ft 488 kts 36°
2026-05-04 21:08 22.30781 -84.59353 36977 ft 488 kts 36°
2026-05-04 21:09 22.35785 -84.54383 36975 ft 488 kts 36°
2026-05-04 21:09 22.40730 -84.49458 36985 ft 485 kts 36°
2026-05-04 21:10 22.45722 -84.44469 36977 ft 485 kts 36°
2026-05-04 21:10 22.50650 -84.39550 36974 ft 485 kts 36°
2026-05-04 21:11 22.55599 -84.34601 36975 ft 484 kts 36°
2026-05-04 21:11 22.60556 -84.29668 36973 ft 484 kts 36°
2026-05-04 21:12 22.65469 -84.24613 36973 ft 493 kts 41°
2026-05-04 21:12 22.69929 -84.18930 37001 ft 492 kts 44°
2026-05-04 21:13 22.74305 -84.13263 36983 ft 490 kts 44°
2026-05-04 21:13 22.78732 -84.07659 36978 ft 489 kts 43°
2026-05-04 21:14 22.83166 -84.02058 36979 ft 489 kts 43°
2026-05-04 21:14 22.87594 -83.96457 36980 ft 489 kts 43°
2026-05-04 21:15 22.92002 -83.90841 36976 ft 489 kts 43°
2026-05-04 21:15 22.96461 -83.85188 36979 ft 494 kts 43°
2026-05-04 21:16 23.00923 -83.79521 36996 ft 491 kts 43°
2026-05-04 21:16 23.05352 -83.73888 36980 ft 490 kts 43°
2026-05-04 21:17 23.09775 -83.68252 36977 ft 490 kts 43°
2026-05-04 21:17 23.14200 -83.62611 36974 ft 490 kts 43°
2026-05-04 21:18 23.18595 -83.57013 36980 ft 490 kts 43°
2026-05-04 21:18 23.23016 -83.51369 36983 ft 494 kts 44°
2026-05-04 21:19 23.27477 -83.45661 36978 ft 496 kts 44°
2026-05-04 21:19 23.31930 -83.39950 36994 ft 492 kts 44°
2026-05-04 21:20 23.36360 -83.34265 36982 ft 492 kts 43°
2026-05-04 21:20 23.40787 -83.28593 36982 ft 492 kts 43°
2026-05-04 21:21 23.45213 -83.22901 36978 ft 492 kts 44°
2026-05-04 21:21 23.49628 -83.17211 36984 ft 492 kts 44°
2026-05-04 21:22 23.54035 -83.11529 36985 ft 496 kts 44°
2026-05-04 21:22 23.58496 -83.05787 36984 ft 496 kts 44°
2026-05-04 21:23 23.62941 -83.00047 37001 ft 494 kts 44°
2026-05-04 21:23 23.67370 -82.94316 36996 ft 494 kts 44°
2026-05-04 21:24 23.71802 -82.88572 36982 ft 494 kts 44°
2026-05-04 21:24 23.76230 -82.82829 36986 ft 494 kts 44°
2026-05-04 21:25 23.80651 -82.77082 36991 ft 496 kts 44°
2026-05-04 21:25 23.85110 -82.71301 36988 ft 498 kts 44°
2026-05-04 21:26 23.89563 -82.65510 37013 ft 498 kts 44°
2026-05-04 21:26 23.94001 -82.59708 36990 ft 498 kts 44°
2026-05-04 21:27 23.98452 -82.53907 36983 ft 497 kts 44°
2026-05-04 21:27 24.03080 -82.48341 36983 ft 494 kts 40°
2026-05-04 21:28 24.07779 -82.42916 36986 ft 494 kts 40°
2026-05-04 21:28 24.12517 -82.37441 36985 ft 496 kts 40°
2026-05-04 21:29 24.17009 -82.31663 36982 ft 506 kts 53°
2026-05-04 21:29 24.20215 -82.24739 37010 ft 510 kts 61°
2026-05-04 21:30 24.23228 -82.17708 36990 ft 509 kts 60°
2026-05-04 21:30 24.26280 -82.10697 36989 ft 509 kts 60°
2026-05-04 21:31 24.30343 -82.01380 36983 ft 509 kts 60°